STARLINK-11459, 62464

Orbit data source: Space-Track

STARLINK-11459, 62464 is a payload satellite owned by SpaceX/Seattle (US) in LEO that was launched on Tue, 31 Dec 2024 UTC via an FALCON 9 launch vehicle from the Air Force Eastern Test Range (AFETR). Payloads include a variety of satellites, spacecraft, and rockets equipped with specific instruments for various scientific and technological missions. These include communications satellites like Starlink; space stations such as the ISS; scientific satellites like the Hubble; Earth observation satellites from companies like Planet Labs, Umbra, and HawkEye 360; GPS; miniature CubeSats for education and research; and military/defense satellites.

Loading next visibility...
STARLINK-11459 details
Identifier
62464, 2024-254C
Orbit
LEO
Last TLE update16 hours ago
Origin
Flag of USSpaceX/Seattle (US)
ManufacturerSpaceX/Seattle
MissionOperational Commercial Communications
Bus & MotorSTARLINK V2M, Unknown motor
Mass730 kg wet, ~700 kg dry
Launch date (UTC)
2024-12-31 (1 month ago)
Launch vehicle
FALCON 9
Launch site
Air Force Eastern Test Range (AFETR)
Object type
Payload
Rocket body
Debris
Shape & HBRBox + 2 Pan, 29 m
Radar Cross Section36.964 m², Large (>1 m²)

Expand to show TLE details & history

TLE from 16 hours ago
0 STARLINK-11459
1 62464U 24254C   25035.53794153  .00017742  00000-0  10434-3 0  9997
2 62464  42.9989 104.5812 0001089 210.3747 149.7061 15.77912553  6759
Epoch: 2025-02-04T12:54Z
Definitive object data (Epoch: 2025-02-04T12:54:38.148Z)
Latitude0.00005°
Longitude135.9805°
Altitude336.758 km
Speed7.708 km/s
True Right ascension06h 58m 19s
True Declination0° 00' 00"
Sunlit
Object was in full shadow at TLE epoch
Visualization TLE readout
Latitude35.922°
Longitude-98.59007°
Altitude337.947 km
Speed7.711 km/s
Apparent Right ascension16h 53m 43s
Apparent Declination0° 55' 25"
Sunlit
Object is in daylight
Visualization observer readout
Local Sidereal Time06:38:35
Azimuth38.107° NE
Elevation-44.293°
Doppler factor1
Orbital elements
Apogee altitude339.075 km
Perigee altitude337.612 km
Semi-major axis6,716.481 km
Eccentricity0.0001089
Inclination42.9989°
RAAN104.5812°
Arg. of periapsis210.3747°
True anomaly149.71239°
Mean anomaly149.7061°
Eccentric anomaly149.70925°
Mean motion3.94303 °/min
BSTAR0.00010434
Orbital period91.3 mins
Loading maneuver chart data...
Loading historical data...
Loading historical data...
Loading historical data...
Loading historical data...
Loading historical data...
Loading historical data...
Loading historical data...

STARLINK-11459 Visibility forecast

Observer location: undefined°, undefined

Span
Click to sort rows by Start time (UTC) header in descending order
Start Az.
Max El. time (UTC)
Max El. Az.
Max El.
End time (UTC)
End Az.
4 mins2025-02-05 12:07:43.276Z291.434° WNW2025-02-05 12:09:43.276Z91.192° ESE40.694°2025-02-05 12:11:43.276Z104.716° ESE
|